Location: Brad�?ov
(49.4916°N, 14.8720°E)
Time: 12:49:36
(UTC+00:00)

Daily predictions for brighter satellites

Satellite Brightness Start Highest point End
(mag) Time Altitude Azimuth Time Altitude Azimuth Time Altitude Azimuth
Resurs 1-3 3.9 19:14:38 10° S 19:19:00 71° WSW 19:23:24 10° NNW
Cosmos 2360 Rocket 3.8 19:17:53 10° NNW 19:22:23 24° NE 19:26:54 10° E
Cosmos 1633 2.6 19:20:24 10° S 19:23:57 59° E 19:27:31 10° NNE
Cosmos 332 Rocket 4.2 19:20:15 10° NNW 19:25:03 52° ENE 19:29:49 10° SE
ERS-1 Rocket 4.3 19:21:25 10° ESE 19:25:34 26° ENE 19:29:43 10° N
Cosmos 1606 2.9 19:26:25 10° NNW 19:30:11 71° W 19:33:58 10° S
Cosmos 2333 Rocket 4.2 19:28:32 10° N 19:32:18 18° NE 19:36:03 10° ENE
Nadezhda 4 Rocket 4.0 19:26:30 10° S 19:32:36 68° E 19:38:49 10° NNE
GP-B 4.1 19:30:48 10° NNE 19:34:43 29° E 19:38:36 10° SE
Landsat 7 3.9 19:33:34 10° SSE 19:38:20 87° WSW 19:43:08 10° NNW
Spot 2 Rocket 4.0 19:34:55 10° SE 19:39:47 46° ENE 19:44:40 10° N
ISS -3.2 19:36:41 10° WNW 19:39:58 48° SSW 19:42:58 12° SE
SPOT 3 Rocket 3.6 19:34:48 10° SSE 19:40:02 86° ENE 19:45:18 10° NNW
IGS 5A 3.7 19:37:26 10° S 19:41:34 70° WSW 19:45:44 10° NNW
Cosmos 1980 Rocket 2.9 19:38:47 10° NW 19:44:13 51° WSW 19:49:40 10° S
BREEZE-M DEB (TANK) 3.2 19:33:24 10° W 19:44:26 89° SSW 19:47:45 10° E
Cosmos 1812 4.5 19:42:30 10° NNE 19:45:21 19° ENE 19:48:00 11° ESE
USA 234 4.2 19:39:36 10° ENE 19:45:50 48° N 19:52:04 10° WNW
Cosmos 2058 4.5 19:42:10 10° SW 19:46:06 39° WNW 19:50:05 10° N
CZ-2C R/B 4.0 19:42:03 10° NNE 19:46:26 45° E 19:50:42 10° S
MetOp-B 4.2 19:41:06 10° SSE 19:46:27 85° ENE 19:51:51 10° NNW
Cosmos 2221 4.0 19:45:03 10° NNW 19:49:00 36° W 19:52:56 10° SSW
RESURS DK-1 3.0 19:47:46 10° SW 19:51:54 62° WNW 19:56:02 10° NNE
USA 245 3.7 19:48:12 10° SSE 19:53:16 71° ENE 19:57:21 10° N
Meteor 2-15 4.5 19:47:46 10° N 19:53:52 90° NNE 19:59:57 10° S
Cosmos 2322 Rocket 2.6 19:49:36 10° NNW 19:55:08 52° NE 19:59:58 13° SE
BREEZE-M DEB (TANK) 3.7 19:51:51 10° SW 19:55:37 54° SE 20:08:47 10° ENE
Cosmos 304 Rocket 3.8 19:54:43 10° NNW 19:59:33 88° WSW 20:03:55 12° SSE
Cosmos 1933 3.3 19:56:35 10° N 20:00:40 85° E 20:04:32 11° S
BREEZE-M DEB (TANK) 4.0 19:57:49 10° W 20:01:06 50° SSW 20:09:24 13° SE
Cosmos 1538 Rocket 4.0 19:57:22 10° SSW 20:02:35 87° WNW 20:07:48 10° NNE
Resurs 01 Rocket 2.7 20:00:04 10° S 20:04:18 44° W 20:08:35 10° NNW
ERS-2 3.4 20:01:09 10° N 20:04:38 43° WNW 20:08:06 10° SW
Cosmos 1553 Rocket 4.4 20:00:22 10° N 20:06:11 45° ENE 20:10:57 15° SE
Cosmos 2151 3.0 20:02:30 10° S 20:06:45 87° WNW 20:11:03 10° N
Cosmos 2098 Rocket 3.6 20:05:03 10° SSW 20:08:05 44° WNW 20:11:42 10° N
JB-3 4.4 20:05:14 10° NNE 20:09:22 68° E 20:13:26 10° S
Gbstr 26 Del rocket 2.8 20:06:26 10° WNW 20:10:07 61° SSW 20:12:56 18° SE
Meteor 2-3 Rocket 3.7 20:06:19 10° S 20:11:57 77° E 20:17:42 10° NNE
Meteor 2-15 Rocket 4.5 20:05:54 10° N 20:12:01 84° W 20:18:06 10° S
CARTOSAT-1 3.5 20:09:29 14° SSE 20:13:14 84° ENE 20:17:34 10° NNW
Cosmos 2219 Rocket 3.8 20:11:50 10° NNW 20:16:25 25° NE 20:20:57 10° E
Cosmos 1624 Rocket 4.4 20:13:52 10° NNW 20:18:57 51° ENE 20:22:39 18° SE
Cosmos 1862 4.3 20:21:25 20° SE 20:23:15 29° E 20:26:44 10° NNE
SL-16 R/B 2.2 20:17:59 10° NNW 20:23:42 82° WSW 20:28:03 18° SSE
Cosmos 1782 2.8 20:23:04 10° NNW 20:27:07 83° W 20:30:03 18° S
Cosmos 1515 Rocket 4.4 20:23:04 10° N 20:27:11 36° ENE 20:29:35 21° SE
COSMOS 2455 4.4 20:26:05 15° ESE 20:27:14 16° ESE 20:30:43 10° ENE
Cosmos 2237 4.3 20:22:00 10° NNW 20:27:43 69° ENE 20:31:46 20° SE
ARIANE 5 R/B 2.7 20:26:51 17° S 20:30:21 80° WSW 20:34:49 10° NNW
COSMOS 2428 4.3 20:26:06 10° NNW 20:30:53 26° NE 20:35:35 10° E
Meteor 2-6 Rocket 4.3 20:27:43 10° N 20:33:06 61° ENE 20:36:39 21° SSE
Cosmos 1271 Rocket 3.5 20:29:48 10° NNW 20:33:41 50° W 20:36:56 14° S
Cosmos 1809 Rocket 4.5 20:30:11 13° S 20:35:42 66° E 20:41:47 10° NNE
S3M 4.4 20:30:15 10° N 20:36:29 52° ENE 20:40:43 21° SE
USA 276 3.0 20:34:50 10° W 20:37:45 34° SSW 20:38:32 29° S
BREEZE-M DEB (TANK) 3.6 20:35:43 10° W 20:38:58 37° SSW 20:43:14 20° SSE
Cosmos 1151 Rocket 3.1 20:36:21 10° NNW 20:40:44 78° W 20:43:40 20° S
Cosmos 1766 Rocket 3.5 20:37:42 16° S 20:41:09 78° E 20:45:32 10° NNE
ATLAS 5 CENTAUR R/B 3.6 20:38:27 10° NNW 20:43:02 31° NNE 20:48:23 10° E
Cosmos 1328 Rocket 3.5 20:40:30 10° N 20:44:59 89° E 20:47:39 24° S
Cosmos 1174 4.1 20:42:29 10° NNW 20:45:20 36° NE 20:46:29 25° E
ATLAS 2AS CENTAUR R/B 4.2 20:39:38 10° WSW 20:47:09 45° NNW 20:54:24 10° NE
Cosmos 923 Rocket 4.1 20:43:38 10° SSW 20:48:59 80° WNW 20:54:21 10° NNE
ATLAS 3B R/B 4.1 20:44:45 10° NW 20:50:45 30° WSW 20:56:42 11° S
Terra 1.8 20:47:56 23° SSE 20:50:54 87° WSW 20:55:42 10° NNW
USA 267 3.8 20:47:03 10° ENE 20:52:55 34° SE 20:58:45 10° SSW
SPOT 5 3.0 20:50:48 20° S 20:53:38 58° W 20:57:59 10° NNW
Cosmos 2082 Rocket 4.3 20:53:10 10° WSW 20:58:02 29° NW 21:02:59 10° NNE
Meteor 1-27 Rocket 4.2 20:53:19 10° N 20:58:47 49° ENE 21:01:49 25° SE
Cosmos 2056 Rocket 3.5 20:53:46 10° NNW 20:59:10 82° WSW 21:02:09 27° SSE
Meteor 2-21 Rocket 4.5 20:56:51 21° S 21:01:04 67° E 21:07:12 10° NNE
NOSS 2-1 (C) 2.9 21:00:51 43° SSE 21:01:27 50° SE 21:04:44 10° NE
BREEZE-M DEB (TANK) 2.1 21:01:39 10° W 21:03:13 49° W 21:03:13 49° W
ERS-1 Rocket 3.6 21:00:35 18° S 21:04:06 51° W 21:09:00 10° NNW
Cosmos 2360 Rocket 2.2 21:01:25 10° NNW 21:07:05 82° WSW 21:10:08 29° SSE
SL-27 R/B 2.5 21:06:23 41° SSE 21:07:23 61° ESE 21:10:57 10° NNE
Meteor 2-21 4.5 21:02:38 16° S 21:07:44 87° W 21:13:56 10° N
NOSS 2-1 (D) 2.7 21:08:17 42° S 21:09:07 61° SE 21:12:29 10° NE
ISS -1.1 21:15:42 10° SW 21:15:56 10° SW 21:15:56 10° SW
Cosmos 2333 Rocket 2.4 21:12:04 10° NNW 21:17:43 66° ENE 21:20:38 29° SE
Cosmos 1833 4.3 21:14:09 23° S 21:17:44 61° ESE 21:23:26 10° NE
Meteor 1-10 Rocket 4.2 21:14:19 10° NNW 21:19:52 77° W 21:22:51 28° S
Cosmos 1812 3.7 21:17:40 10° NNW 21:21:18 39° W 21:23:04 24° SW
Cosmos 2112 Rocket 4.4 21:18:24 10° SW 21:23:39 64° WNW 21:28:55 10° NNE
Cosmos 1500 Rocket 3.6 21:22:35 39° SSE 21:24:01 62° E 21:28:24 10° NNE
Cosmos 1680 Rocket 4.2 21:19:01 10° SW 21:24:11 56° WNW 21:29:23 10° NNE
Cosmos 972 Rocket 4.5 21:23:45 33° SE 21:25:24 43° ESE 21:30:09 10° NNE
IRIDIUM 103 4.4 21:22:47 10° N 21:27:59 63° E 21:30:05 35° SSE
Cosmos 2322 3.8 21:22:18 10° NNW 21:28:03 73° ENE 21:30:49 32° SE
USA 234 3.4 21:22:42 14° ESE 21:28:25 73° NNE 21:34:58 10° WNW
COBE Rocket 3.9 21:29:38 37° SE 21:31:19 61° ENE 21:35:57 10° N
Cosmos 292 Rocket 3.9 21:27:08 10° NNW 21:31:53 68° WSW 21:33:40 37° S
Cosmos 2297 Rocket 4.3 21:35:24 11° E 21:35:44 11° E 21:37:18 10° ENE
Cosmos 2237 Rocket 3.6 21:33:14 10° NNW 21:38:14 30° NE 21:42:14 14° ESE
Cosmos 2322 Rocket 3.5 21:34:05 10° NW 21:38:55 30° WSW 21:41:46 19° SSW
Meteor 2-16 Rocket 4.5 21:35:25 24° SSW 21:39:17 79° W 21:45:24 10° N
Cosmos 1408 Rocket 4.3 21:40:12 23° SW 21:42:38 49° WNW 21:46:52 10° N
Cosmos 1743 Rocket 3.5 21:42:22 40° SSW 21:43:56 87° WNW 21:48:24 10° N
Cosmos 2285 Rocket 4.0 21:38:25 10° NNW 21:44:46 80° ENE 21:47:42 34° SSE
IRIDIUM 106 4.3 21:41:02 10° N 21:46:17 88° E 21:48:19 39° S
Cosmos 2227 Rocket 4.3 21:47:05 10° E 21:47:29 10° E 21:48:01 10° E
Cosmos 2315 Rocket 4.0 21:42:56 10° N 21:49:17 88° WSW 21:52:17 34° S
Gblst 52 Del rocket 4.5 21:44:51 10° WNW 21:51:02 87° SSW 21:56:45 17° ESE
Sich 1 3.2 21:51:50 47° SE 21:52:34 54° E 21:56:48 10° NNE
Cosmos 2084 3.9 21:49:17 10° WSW 21:53:19 57° NW 21:57:29 10° NE
Cosmos 494 Rocket 4.4 21:53:17 37° SE 21:54:08 41° ESE 21:58:56 10° NE
Okean 1 4.0 21:51:41 10° N 21:55:32 42° ENE 21:56:09 39° E
Cosmos 1633 Rocket 4.1 21:56:02 29° E 21:56:27 30° E 22:00:15 10° NNE
Cosmos 2266 Rocket 4.2 21:53:29 25° SSW 21:57:13 68° WNW 22:03:28 10° N
Cosmos 1666 Rocket 4.2 21:59:59 37° ESE 22:00:31 39° E 22:04:40 10° NNE
Cosmos 1048 Rocket 4.0 21:59:26 45° SSE 22:00:43 59° ESE 22:05:46 10° NNE
Cosmos 2219 Rocket 2.1 21:55:23 10° NNW 22:00:59 77° WSW 22:02:58 41° SSE
Cosmos 2228 Rocket 3.3 22:00:37 10° NNW 22:04:58 60° W 22:06:05 45° SSW
SL-16 R/B 4.3 22:00:51 10° N 22:05:10 22° NE 22:09:28 10° E
Meteor 1-19 Rocket 4.3 21:59:34 10° N 22:05:13 63° ENE 22:07:11 39° SE
SL-16 R/B 4.4 22:03:58 10° WNW 22:06:54 14° W 22:09:51 10° SW
NOSS 2-1 (E) 4.0 22:05:22 19° WSW 22:07:22 43° NW 22:10:50 10° NNE
USA 40 PKM 4.2 22:04:19 10° NW 22:07:57 86° NNE 22:08:39 57° ESE
NOSS 3-1 (C) 4.2 22:03:09 10° NW 22:10:30 60° SW 22:14:30 33° S
COSMOS 2455 2.7 22:09:10 31° SSW 22:12:15 80° ESE 22:18:18 10° NE
Meteor 2-4 Rocket 4.5 22:08:02 10° N 22:13:45 46° ENE 22:16:13 30° ESE
COSMOS 2428 2.7 22:10:01 10° NNW 22:15:44 73° WSW 22:17:35 43° S
Cosmos 1602 3.5 22:17:48 74° SE 22:18:00 77° E 22:21:52 10° NNE
CZ-4C R/B 4.3 22:12:46 10° NW 22:18:39 33° NNE 22:25:34 10° E
Cosmos 1515 3.5 22:16:51 10° NNW 22:20:38 75° W 22:20:48 73° SW
Cosmos 1862 Rocket 3.8 22:17:54 10° N 22:22:12 55° ENE 22:22:56 48° ESE
Spot 4 4.1 22:21:45 43° SSW 22:22:58 56° W 22:27:45 10° NNW
USA 229 DEB 3.9 22:17:30 10° NW 22:24:46 72° SW 22:28:16 35° SSE
USA 229 3.9 22:17:36 10° NW 22:24:52 72° SW 22:28:23 35° SSE
ATLAS 5 CENTAUR R/B 2.2 22:22:43 10° NW 22:28:12 82° SW 22:30:39 39° SSE
Terra 4.2 22:27:29 10° WSW 22:29:23 12° W 22:31:18 10° WNW
Cosmos 1452 Rocket 4.2 22:26:37 10° NW 22:31:31 40° WSW 22:32:49 34° SW
Cosmos 1707 Rocket 3.5 22:27:17 10° NNW 22:31:39 70° W 22:32:18 59° SSW
COSMOS 2487 3.2 22:31:49 43° W 22:32:07 44° WNW 22:35:24 10° N
Thor Agena Rocket 4.4 22:28:44 10° NNE 22:33:18 33° E 22:34:07 31° ESE
ALOS 2 2.6 22:33:57 58° SSW 22:34:38 70° WSW 22:39:02 10° NNW
USA 267 3.2 22:29:50 10° ENE 22:36:25 89° NNW 22:42:59 10° WSW
Cosmos 2219 4.2 22:40:38 29° ESE 22:41:31 31° ESE 22:46:29 10° NE
Nadezhda 1 Rocket 4.1 22:35:29 10° N 22:41:55 71° ENE 22:44:26 39° SSE
Cosmos 1666 3.3 22:44:25 44° E 22:44:25 44° E 22:48:00 10° NNE
NOSS 3-1 (A) 4.2 22:37:51 10° NW 22:45:11 60° SW 22:48:48 35° S
SL-08 ROCKET BODY 4.4 22:44:13 42° S 22:46:27 88° W 22:52:39 10° N
Cosmos 2360 Rocket 4.2 22:47:18 10° WNW 22:50:10 14° W 22:51:53 13° WSW
NOSS 2-2 (D) 4.4 22:51:37 10° NW 22:56:43 78° NE 23:00:43 26° SE
Cosmos 1110 Rocket 4.5 22:52:33 10° NNW 22:57:38 46° WSW 22:58:40 41° SW
Cosmos 1980 3.6 22:53:56 10° NNW 22:59:38 82° WSW 23:01:19 47° SSE
Cosmos 2333 Rocket 3.6 22:57:06 10° NW 23:01:30 24° WSW 23:02:38 22° WSW
Cosmos 1331 Rocket 4.4 22:58:04 10° NW 23:03:04 45° WSW 23:03:58 41° SW
CZ-2D R/B 4.4 23:04:20 10° ENE 23:06:42 13° E 23:09:04 10° ESE
Meteor 2-17 Rocket 4.5 23:05:18 43° SSE 23:07:17 69° E 23:13:19 10° NNE
USA 234 3.5 23:10:02 40° S 23:11:40 47° SW 23:17:59 10° WNW
Nimbus 7 Rocket 4.4 23:05:43 10° NNE 23:11:45 81° WNW 23:14:02 41° SSW
SL-16 R/B 4.3 23:07:14 10° ESE 23:12:10 26° NE 23:17:09 10° N
Cosmos 1340 Rocket 2.9 23:13:34 60° E 23:13:36 60° E 23:17:29 10° NNE
NOSS 0 Rocket 4.3 23:08:28 10° NW 23:14:27 49° WSW 23:16:01 40° SSW
EO 1 Del DPAF 4.4 23:13:29 10° NNE 23:16:42 30° E 23:16:42 30° E
Okean 1-7 3.0 23:14:05 10° N 23:18:22 72° E 23:18:54 62° SE
Cosmos 2297 Rocket 2.2 23:17:11 48° S 23:18:40 67° ESE 23:24:19 10° NNE
Lacrosse 5 2.0 23:21:59 51° SSE 23:22:18 52° SE 23:27:14 10° ENE
Cosmos 2237 Rocket 2.3 23:17:05 10° NW 23:22:41 60° WSW 23:24:02 47° SSW
Cosmos 1869 Rocket 4.4 23:23:27 37° ESE 23:24:11 40° E 23:28:23 10° NNE
Cosmos 2242 Rocket 3.5 23:20:02 10° N 23:24:29 83° E 23:25:08 64° SSE
Cosmos 2084 Rocket 3.8 23:20:26 10° NW 23:24:07 49° WSW 23:24:07 49° WSW
NOSS 2-2 (E) 4.5 23:20:30 10° NW 23:25:51 65° SW 23:28:32 38° SSE
Cosmos 1500 4.4 23:26:57 30° W 23:27:25 32° WNW 23:30:55 10° N
Cosmos 2181 Rocket 4.3 23:21:35 10° N 23:27:53 60° ENE 23:30:51 31° SE
Cosmos 1470 Rocket 3.8 23:29:03 49° WSW 23:29:42 55° WNW 23:33:59 10° N
Cosmos 2227 Rocket 2.3 23:28:53 46° S 23:30:22 63° ESE 23:35:58 10° NNE
Cosmos 909 Rocket 4.4 23:31:45 39° S 23:34:07 60° ESE 23:41:43 10° NE
Cosmos 1633 Rocket 4.3 23:33:06 27° W 23:34:12 31° WNW 23:38:06 10° N
Cosmos 1933 Rocket 3.6 23:35:34 59° SW 23:36:17 73° W 23:40:46 10° N
Timation 1 Rocket 4.5 23:41:04 42° S 23:42:55 62° ESE 23:48:50 10° NE
Meteor 1-11 Rocket 3.7 23:41:19 45° S 23:43:02 74° E 23:48:34 10° NNE
Cosmos 2219 Rocket 4.2 23:41:31 10° WNW 23:43:58 13° W 23:44:40 13° WSW
Cosmos 2263 Rocket 4.0 23:46:36 15° SE 23:48:43 19° E 23:52:34 10° ENE
SL-16 R/B 2.1 23:44:25 10° NNW 23:50:08 87° ENE 23:52:42 34° SSE
Cosmos 1992 Rocket 3.9 23:45:21 10° NNW 23:50:36 77° WSW 23:52:06 47° S
PSLV R/B 4.1 23:46:13 10° N 23:50:56 60° WNW 23:52:12 44° SW
Cosmos 1269 Rocket 4.3 23:50:05 38° SW 23:51:58 60° WNW 23:57:14 10° NNE
ADEOS Rocket 4.2 23:47:11 10° ESE 23:52:01 33° ENE 23:56:53 10° N
Resurs 1-4 Rocket 3.4 23:48:24 10° NNE 23:53:02 30° E 23:55:13 22° SE
